[[{"header":{"parameterUnit":"m.s-1","parameterCategory":1,"la1":30.2991,"la2":30.254,"lo1":-89.0895,"lo2":-89.0444,"dy":0.0017,"dx":0.0017,"nx":28,"ny":28,"refTime":"2023-09-02T21:00:00:Z","depth":0,"parameterNumber":2,"parameterNumberName":"U-component_of_WINDS"},"data":[0,0,0,0,0,0,0,0,0,0,0,0,0,0,0,0,0,0,0,0,0,0,0,0,0,0,0,0,0,0,0,0,0,0,0,0,0,0,0,0,0,0,0,0,0,0,0,0,0,0,0,0,0,0,0,0,0,0,-5.0718,-5.072,0,-5.0898,-5.09,-5.0902,-5.0929,-5.0927,-5.0925,-5.0924,-5.1104,-5.111,-5.1117,0,0,0,0,0,0,0,0,0,0,0,0,0,-5.0393,-5.0399,-5.0718,-5.072,-5.0722,-5.0898,-5.09,-5.0902,-5.0929,-5.0927,-5.0925,-5.0923,-5.1102,-5.111,-5.1117,0,0,0,0,0,0,0,0,0,0,0,0,0,-5.0549,-5.0401,-5.0717,-5.0757,-5.0762,-5.0897,-5.09,-5.0903,-5.0929,-5.0927,-5.0925,-5.0922,-5.11,-5.1109,-5.1118,-5.1225,0,0,-5.1147,-5.1151,0,0,0,0,0,0,0,0,-5.054,-5.0561,-5.0749,-5.0754,-5.076,-5.0888,-5.0852,-5.1011,-5.093,-5.0866,-5.0924,-5.0921,-5.1034,-5.1049,-5.1088,-5.1234,-5.1242,-5.1148,-5.1154,-5.1158,-5.1161,0,0,0,0,0,0,0,-5.053,-5.0554,-5.0789,-5.0751,-5.0758,-5.0764,-5.0784,-5.0882,-5.0961,-5.0871,-5.0874,-5.0895,-5.1037,-5.1079,-5.1092,-5.1244,-5.1148,-5.1156,-5.1162,-5.1166,-5.1486,-5.1488,0,0,0,0,0,0,-5.0512,-5.0544,-5.0783,-5.0794,-5.0642,-5.0772,-5.0794,-5.085,-5.096,-5.0975,-5.0897,-5.0895,-5.1064,-5.1081,-5.1099,-5.1229,-5.1158,-5.1167,-5.1172,-5.1483,-5.1486,-5.1489,0,0,0,0,0,0,-5.0505,-5.0533,-5.0776,-5.067,-5.0701,-5.078,-5.0843,-5.0855,-5.0896,-5.098,-5.0993,-5.0925,-5.1062,-5.1085,-5.1194,-5.1236,-5.1171,-5.118,-5.148,-5.1484,-5.1488,-5.1492,0,0,0,0,0,0,-5.0496,-5.0531,-5.0573,-5.0671,-5.0707,-5.0868,-5.0845,-5.086,-5.0913,-5.0913,-5.101,-5.1023,-5.1062,-5.1179,-5.1203,-5.1248,-5.1187,-5.1476,-5.1481,-5.1486,-5.1489,-5.1496,-5.1503,0,0,0,0,0,-5.0484,-5.0566,-5.0575,-5.0603,-5.0762,-5.0871,-5.0891,-5.0936,-5.0916,-5.0959,-5.1012,-5.102,-5.1229,-5.119,-5.1217,-5.1265,-5.1473,-5.148,-5.1486,-5.1486,-5.1495,-5.1503,0,0,0,0,0,0,-5.0469,-5.058,-5.059,-5.0707,-5.078,-5.0875,-5.093,-5.0944,-5.1023,-5.1019,-5.107,-5.1091,-5.1196,-5.1243,-5.1198,-5.1374,-5.1349,-5.1361,-5.134,-5.1349,-5.1356,-5.1341,-5.1195,0,0,0,0,0,-5.048,-5.0561,-5.0653,-5.0747,-5.0783,-5.085,-5.0899,-5.0928,-5.1004,-5.1034,-5.1096,-5.1169,-5.1251,-5.1303,-5.1383,-5.1497,-5.1517,-5.1544,-5.1551,-5.1556,-5.1564,-5.1626,-5.1638,-5.151,-5.151,-5.151,0,0,-5.0501,-5.0572,-5.062,-5.0746,-5.0805,-5.0886,-5.0876,-5.0962,-5.1022,-5.1047,-5.1152,-5.1201,-5.1285,-5.1396,-5.1448,-5.1438,-5.1605,-5.1564,-5.1568,-5.1574,-5.1634,-5.1646,-5.1657,-5.1514,-5.1514,-5.1513,0,0,-5.0582,-5.0645,-5.0729,-5.079,-5.0881,-5.0925,-5.0945,-5.104,-5.1073,-5.118,-5.1201,-5.1273,-5.1413,-5.1472,-5.152,-5.1625,-5.1635,-5.165,-5.1685,-5.1745,-5.1755,-5.1764,-5.1798,-5.1811,-5.1659,-5.166,-5.166,0,-5.0597,-5.0721,-5.077,-5.0856,-5.091,-5.0939,-5.1024,-5.108,-5.1191,-5.1227,-5.1215,-5.1391,-5.1451,-5.1575,-5.16,-5.164,-5.1663,-5.1637,-5.175,-5.1759,-5.1769,-5.1802,-5.1815,-5.166,-5.166,-5.166,-5.166,0,-5.0734,-5.082,-5.0877,-5.0985,-5.1046,-5.113,-5.1191,-5.1247,-5.1271,-5.1316,-5.1424,-5.1497,-5.1592,-5.1624,-5.1648,-5.1752,-5.1743,-5.174,-5.1715,-5.1781,-5.1813,-5.1826,-5.1662,-5.1662,-5.1661,-5.1661,0,0,-5.0806,-5.0942,-5.0962,-5.1011,-5.1114,-5.1181,-5.1267,-5.1361,-5.1406,-5.1484,-5.1555,-5.1674,-5.1672,-5.1727,-5.1758,-5.1811,-5.1886,-5.1802,-5.1804,-5.1812,-5.2003,-5.2001,-5.2015,-5.1895,-5.1898,-5.19,-5.1994,0,-5.0896,-5.1051,-5.1098,-5.1227,-5.1306,-5.1336,-5.141,-5.1481,-5.1527,-5.1599,-5.165,-5.1732,-5.1725,-5.1758,-5.1812,-5.1866,-5.1925,-5.186,-5.196,-5.1963,-5.1933,-5.2033,-5.2032,-5.2117,-5.2008,-5.201,-5.2012,0,-5.102,-5.11,-5.1237,-5.133,-5.1365,-5.1431,-5.1521,-5.1591,-5.1672,-5.1701,-5.1763,-5.179,-5.188,-5.1853,-5.1976,-5.1931,-5.1976,-5.2008,-5.2013,-5.202,-5.1988,-5.2039,-5.2146,-5.2157,-5.2032,-5.2031,-5.2029,0,-5.1055,-5.1198,-5.1297,-5.1339,-5.1451,-5.1496,-5.1545,-5.1624,-5.1677,-5.1756,-5.179,-5.1878,-5.1925,-5.1992,-5.2042,-5.2019,-5.216,-5.2138,-5.2184,-5.2183,-5.2209,-5.2206,-5.232,-5.2244,-5.2244,-5.2244,-5.2243,0,-5.1148,-5.123,-5.1314,-5.1375,-5.1467,-5.1522,-5.1611,-5.1661,-5.1731,-5.1801,-5.1834,-5.1899,-5.1962,-5.2036,-5.2075,-5.217,-5.2192,-5.2216,-5.2225,-5.2211,-5.2207,-5.2238,-5.2231,-5.2247,-5.2246,-5.2246,-5.2245,0,-5.12,-5.1261,-5.1371,-5.1469,-5.1496,-5.1559,-5.1642,-5.1702,-5.175,-5.1838,-5.1862,-5.1937,-5.2025,-5.2082,-5.2194,-5.2221,-5.2323,-5.2332,-5.2295,-5.2298,-5.2341,-5.2334,-5.2475,-5.2495,-5.2409,-5.2409,-5.241,0,-5.1254,-5.1317,-5.1422,-5.1472,-5.1521,-5.1602,-5.1657,-5.1713,-5.1769,-5.1866,-5.1914,-5.2004,-5.2079,-5.2218,-5.2281,-5.2367,-5.2376,-5.242,-5.2389,-5.2373,-5.2373,-5.2367,-5.2373,-5.2423,-5.2424,-5.2424,-5.2425,0,-5.1341,-5.1368,-5.1446,-5.1536,-5.1601,-5.1673,-5.1746,-5.1785,-5.1854,-5.1915,-5.2006,-5.2064,-5.2179,-5.2268,-5.236,-5.2409,-5.2427,-5.2435,-5.2449,-5.2434,-5.2408,-5.2419,-5.2304,-5.243,-5.243,-5.2429,-5.2429,-5.2429,-5.1393,-5.145,-5.1533,-5.1619,-5.1681,-5.1748,-5.1809,-5.1865,-5.1942,-5.204,-5.207,-5.2164,-5.2243,-5.2369,-5.242,-5.2493,-5.2488,-5.251,-5.2515,-5.2519,-5.2517,-5.24,-5.2511,-5.2511,-5.2511,-5.2511,-5.2511,0,-5.1479,-5.1534,-5.1613,-5.1714,-5.1782,-5.1797,-5.1879,-5.1933,-5.2016,-5.209,-5.2163,-5.2267,-5.2354,-5.2425,-5.2514,-5.2559,-5.257,-5.258,-5.2575,-5.2586,-5.2518,-5.2495,-5.257,-5.257,-5.257,-5.257,-5.257,-5.257,-5.1531,-5.1628,-5.1665,-5.1793,-5.1848,-5.1941,-5.1986,-5.2048,-5.2106,-5.2221,-5.2293,-5.234,-5.2412,-5.2507,-5.2587,-5.2606,-5.2635,-5.2643,-5.2663,-5.2598,-5.2591,-5.2584,-5.2562,-5.265,-5.265,-5.2724,-5.2725,-5.2725]},{"header":{"parameterUnit":"m.s-1","parameterCategory":1,"la1":30.2991,"la2":30.254,"lo1":-89.0895,"lo2":-89.0444,"dy":0.0017,"dx":0.0017,"nx":28,"ny":28,"refTime":"2023-09-02T21:00:00:Z","depth":0,"parameterNumber":3,"parameterNumberName":"V-component_of_WINDS"},"data":[0,0,0,0,0,0,0,0,0,0,0,0,0,0,0,0,0,0,0,0,0,0,0,0,0,0,0,0,0,0,0,0,0,0,0,0,0,0,0,0,0,0,0,0,0,0,0,0,0,0,0,0,0,0,0,0,0,0,2.4477,2.4477,0,2.4472,2.4471,2.4471,2.443,2.4429,2.4428,2.4427,2.4421,2.4422,2.4423,0,0,0,0,0,0,0,0,0,0,0,0,0,2.4453,2.4454,2.4477,2.4477,2.4477,2.4472,2.4471,2.4471,2.443,2.4429,2.4428,2.4427,2.4421,2.4422,2.4423,0,0,0,0,0,0,0,0,0,0,0,0,0,2.4457,2.4454,2.4477,2.4456,2.4454,2.4472,2.4471,2.4471,2.4431,2.4429,2.4428,2.4426,2.4421,2.4422,2.4423,2.446,0,0,2.4427,2.4427,0,0,0,0,0,0,0,0,2.4457,2.4458,2.4459,2.4458,2.4455,2.445,2.4461,2.4468,2.4431,2.444,2.4427,2.4426,2.4432,2.4432,2.4434,2.446,2.446,2.4427,2.4427,2.4428,2.4428,0,0,0,0,0,0,0,2.4457,2.4458,2.4475,2.4459,2.4457,2.4447,2.4446,2.4462,2.4444,2.4439,2.4436,2.4436,2.4431,2.4433,2.4434,2.446,2.4427,2.4428,2.4428,2.4429,2.4516,2.4518,0,0,0,0,0,0,2.446,2.4458,2.4475,2.4475,2.4453,2.4449,2.4447,2.4453,2.4444,2.4441,2.4437,2.4434,2.4432,2.4433,2.4434,2.4477,2.4428,2.4429,2.443,2.4515,2.4516,2.4518,0,0,0,0,0,0,2.4459,2.4462,2.4475,2.4466,2.4467,2.4451,2.4458,2.4454,2.4457,2.4443,2.4439,2.4443,2.4431,2.4432,2.4454,2.4476,2.4429,2.4431,2.4513,2.4515,2.4517,2.4563,0,0,0,0,0,0,2.4459,2.4462,2.4475,2.4466,2.4467,2.4496,2.4459,2.4455,2.4459,2.4454,2.4447,2.4445,2.443,2.4453,2.4455,2.4477,2.4431,2.4511,2.4514,2.4517,2.4559,2.4567,2.4573,0,0,0,0,0,2.4458,2.4488,2.4476,2.4479,2.4484,2.4497,2.4498,2.448,2.4461,2.4474,2.4466,2.4445,2.4473,2.4455,2.4458,2.448,2.4509,2.4513,2.4516,2.4556,2.4565,2.4573,0,0,0,0,0,0,2.45,2.4487,2.4473,2.4501,2.4501,2.449,2.4507,2.449,2.4495,2.4491,2.4469,2.4467,2.4493,2.4489,2.4469,2.4516,2.4488,2.4492,2.4517,2.4525,2.4532,2.4532,2.4432,0,0,0,0,0,2.4512,2.4524,2.4512,2.4538,2.4538,2.4523,2.4528,2.4515,2.4513,2.4512,2.4505,2.4504,2.4513,2.4519,2.4527,2.4559,2.4557,2.4576,2.4582,2.4588,2.4592,2.4609,2.4617,2.453,2.453,2.453,0,0,2.4538,2.4532,2.4541,2.4546,2.4544,2.4557,2.4523,2.4537,2.4546,2.4514,2.4535,2.453,2.4528,2.4555,2.4567,2.4553,2.4615,2.4593,2.4597,2.4598,2.4613,2.4621,2.4629,2.4533,2.4532,2.4532,0,0,2.4591,2.4588,2.461,2.4609,2.4606,2.4596,2.4602,2.4594,2.4589,2.461,2.4586,2.4597,2.4612,2.4612,2.4613,2.4668,2.4649,2.4672,2.4706,2.4723,2.473,2.4736,2.4755,2.4762,2.4676,2.4676,2.4676,0,2.4623,2.4641,2.4623,2.4639,2.4642,2.4615,2.4636,2.4636,2.4637,2.4639,2.4623,2.4643,2.4639,2.4666,2.468,2.4683,2.4688,2.4671,2.473,2.4736,2.4741,2.4759,2.4767,2.4678,2.4678,2.4678,2.4677,0,2.4681,2.4694,2.4712,2.4713,2.4718,2.4737,2.4722,2.4729,2.4716,2.4708,2.4729,2.4725,2.473,2.4736,2.4723,2.4762,2.4753,2.4734,2.4705,2.4752,2.4769,2.4776,2.4682,2.4681,2.468,2.468,0,0,2.4758,2.475,2.4757,2.4757,2.4754,2.4763,2.4781,2.4788,2.4794,2.4796,2.481,2.4825,2.4808,2.481,2.4797,2.4812,2.4856,2.4791,2.4791,2.4803,2.4898,2.4911,2.4919,2.4844,2.4845,2.4846,2.4898,0,2.4809,2.4839,2.4824,2.4856,2.4868,2.4843,2.4859,2.4858,2.4851,2.486,2.4853,2.4863,2.484,2.4841,2.4855,2.4847,2.4874,2.4844,2.4857,2.4857,2.4857,2.4928,2.4942,2.4991,2.4904,2.4905,2.4906,0,2.4871,2.4876,2.4909,2.4904,2.4908,2.4923,2.4928,2.4937,2.4936,2.493,2.4934,2.4917,2.4935,2.4908,2.4932,2.4911,2.4916,2.4913,2.4915,2.4914,2.4884,2.4929,2.5006,2.5013,2.4916,2.4915,2.4914,0,2.4924,2.4939,2.496,2.4962,2.4956,2.4967,2.4965,2.4963,2.4968,2.4973,2.4976,2.4982,2.4986,2.4991,2.4977,2.4959,2.5003,2.4975,2.4998,2.4999,2.5008,2.5007,2.5086,2.5013,2.5013,2.5012,2.5012,0,2.4981,2.5002,2.4984,2.4997,2.5021,2.5004,2.5027,2.5023,2.5021,2.5034,2.5013,2.5025,2.5006,2.5017,2.5006,2.5027,2.5029,2.5025,2.5021,2.5026,2.5027,2.5028,2.5024,2.5014,2.5014,2.5013,2.5013,0,2.5043,2.5031,2.5054,2.5047,2.5046,2.5064,2.5058,2.507,2.5063,2.5078,2.5081,2.5069,2.508,2.5067,2.5077,2.507,2.5099,2.5091,2.5099,2.5097,2.5121,2.5119,2.5202,2.5212,2.5134,2.5135,2.5135,0,2.5079,2.5095,2.5091,2.5098,2.5097,2.5109,2.5114,2.5098,2.5105,2.5106,2.5118,2.5127,2.5134,2.5153,2.5145,2.5153,2.5144,2.5173,2.5145,2.5149,2.5144,2.5143,2.5144,2.5179,2.5179,2.518,2.5181,0,2.5146,2.514,2.5148,2.5155,2.5162,2.5166,2.5169,2.5176,2.516,2.5168,2.518,2.5185,2.5196,2.5205,2.5211,2.5209,2.5192,2.519,2.5196,2.52,2.5204,2.5201,2.5114,2.5188,2.5187,2.5187,2.5186,2.5186,2.5195,2.5208,2.5208,2.5218,2.5219,2.5222,2.5234,2.5228,2.5237,2.5245,2.5235,2.5249,2.5249,2.5255,2.5255,2.5266,2.5254,2.5262,2.5264,2.5266,2.5269,2.5203,2.5267,2.5267,2.5267,2.5267,2.5266,0,2.526,2.5259,2.5268,2.5274,2.5282,2.5267,2.5269,2.5277,2.529,2.5291,2.5299,2.5312,2.5321,2.5315,2.5323,2.5333,2.5326,2.5335,2.5334,2.5334,2.528,2.5274,2.5341,2.5341,2.5341,2.5341,2.5341,2.5341,2.5294,2.5316,2.531,2.5332,2.533,2.5344,2.5347,2.535,2.5351,2.5367,2.5375,2.5371,2.537,2.5378,2.5386,2.5384,2.5387,2.54,2.5395,2.5345,2.5338,2.533,2.5325,2.5401,2.5401,2.5447,2.5448,2.5448]}]]